Theta_e
280 279 279 279 278 279 278 279 279 279 279 279 279 279 279 279 280 279 279 279 280 280 279 279 279 279 278 277 277 278 278 278 278 278 278 278 279 279 279 278 278 279 278 278 278 278 278 278 278 278 278 278 277 278 278 279 279 278 278 279 280 280
280 279 279 279 279 279 279 278 278 278 279 279 279 279 279 279 279 279 279 278 279 279 278 278 277 278 278 278 278 278 278 278 278 278 278 278 278 278 278 277 277 278 278 278 278 278 278 278 278 278 277 277 277 277 277 278 278 277 277 278 279 279
280 279 279 280 279 280 280 280 279 280 279 279 279 279 277 278 278 278 278 278 277 277 277 277 277 277 277 277 277 277 277 278 278 277 277 277 277 277 277 277 277 277 277 277 277 277 277 277 277 277 277 276 276 277 277 277 277 276 276 277 277 278
280 280 280 280 280 281 281 282 282 281 279 278 277 277 277 277 277 277 277 277 277 277 277 276 276 276 276 276 276 276 277 277 277 277 277 277 277 277 277 277 277 277 277 276 276 276 276 276 276 276 276 276 276 276 277 277 276 276 276 276 276 276
280 281 282 282 282 282 282 281 280 279 279 279 277 277 277 277 277 277 277 277 277 276 275 275 275 275 275 275 276 276 276 276 276 277 276 276 276 277 276 276 276 276 276 276 276 275 275 276 275 276 276 275 275 275 275 276 275 275 275 275 275 275
280 280 281 281 281 280 280 279 279 279 278 277 277 277 277 277 277 277 277 277 276 275 275 275 275 275 275 275 275 275 275 276 276 276 276 276 276 275 276 276 275 275 275 275 275 275 275 275 275 275 275 275 275 275 275 275 275 275 275 275 275 275
280 281 280 280 280 279 278 279 279 278 277 277 277 277 277 277 277 276 276 276 275 275 275 275 275 275 275 275 275 275 275 275 275 275 274 275 274 274 274 274 274 274 274 274 273 273 273 274 274 274 274 274 274 274 274 274 275 275 275 275 275 277
280 280 279 279 279 279 279 279 278 277 277 277 277 277 277 277 276 276 276 275 275 275 274 275 275 275 275 275 275 274 274 274 274 273 273 273 273 273 273 272 272 272 272 272 272 272 272 272 272 272 273 273 273 274 274 274 274 274 275 275 275 276
279 279 279 279 279 278 278 278 277 276 277 276 276 276 276 276 275 276 275 275 274 274 274 274 274 274 274 274 274 274 273 272 272 272 271 272 271 271 271 271 271 271 271 271 271 271 271 271 271 271 271 272 272 272 273 273 274 274 275 275 275 275
279 279 279 278 278 277 277 276 277 277 277 276 276 275 275 276 275 275 275 274 274 274 274 274 274 274 274 273 273 272 271 271 270 270 270 269 269 269 269 269 269 269 270 270 269 269 270 269 269 270 270 271 271 272 272 273 273 273 273 274 274 274
279 279 279 278 277 277 276 276 275 275 275 275 274 275 274 274 275 274 274 274 274 273 273 273 273 272 272 271 270 270 269 269 268 268 268 268 268 268 268 268 268 268 267 268 268 268 268 268 268 269 269 270 271 272 272 272 272 272 272 272 273 273
279 279 278 277 277 277 276 276 275 275 275 275 274 274 274 274 274 273 273 273 272 272 272 271 270 270 270 269 268 267 267 266 266 266 266 266 266 266 266 266 266 266 265 265 266 266 266 266 267 269 272 274 272 272 272 272 272 272 272 271 271 271
278 278 277 277 277 277 277 277 276 275 274 274 274 274 273 273 272 272 271 272 271 270 270 269 268 268 267 267 266 264 264 265 264 263 264 263 264 264 264 264 264 264 264 264 264 264 265 265 266 270 272 274 275 273 272 271 271 271 271 271 271 271
277 277 277 277 277 277 277 276 275 274 274 273 273 273 272 271 271 271 270 270 269 269 268 267 266 265 265 264 263 263 262 261 261 261 262 261 262 263 262 263 263 263 263 263 263 263 263 263 266 270 272 273 274 274 272 272 271 271 271 270 270 270
278 278 278 277 276 277 277 276 275 274 274 273 273 271 270 270 270 269 268 268 267 267 266 265 263 263 262 262 261 261 260 260 261 260 260 260 261 261 261 262 262 262 262 262 262 262 262 262 266 269 271 273 274 274 273 271 271 270 270 269 269 268
277 277 277 276 276 276 276 275 275 274 273 272 270 269 269 269 268 267 267 266 266 265 265 264 262 262 261 261 260 260 259 259 259 260 260 260 260 260 260 260 261 261 261 261 261 261 261 261 265 270 271 272 273 274 274 271 270 269 268 268 268 268
277 276 275 275 275 274 274 273 273 272 271 270 269 268 268 267 267 266 266 265 265 264 262 263 262 260 261 260 259 258 258 259 259 259 260 259 260 260 259 259 259 259 260 260 260 260 260 261 267 269 271 271 273 274 273 270 268 267 267 268 268 268
277 277 276 275 274 273 273 273 272 270 269 268 268 267 267 266 265 265 264 264 263 262 263 261 260 259 259 260 258 258 259 259 258 258 259 258 259 258 259 259 259 259 259 259 259 259 259 260 266 268 270 271 272 273 270 268 267 267 267 267 267 268
277 277 275 274 273 273 272 271 270 269 267 266 265 265 265 265 263 264 264 262 262 262 262 262 260 259 258 258 258 257 257 259 258 258 257 257 258 258 258 258 258 258 258 258 258 258 258 259 263 268 269 271 272 271 268 268 267 266 266 266 267 268
276 275 275 273 272 271 270 269 268 267 266 265 265 264 264 263 263 263 262 262 261 262 261 261 259 258 257 256 256 256 258 257 257 256 257 257 257 257 257 258 257 258 258 258 257 258 258 259 262 267 269 270 271 271 268 267 266 266 266 266 267 267
276 274 273 272 270 269 268 267 266 266 265 265 264 263 263 263 263 262 261 262 262 261 260 259 258 258 257 256 257 256 256 256 256 257 256 257 256 257 257 257 257 257 257 257 258 260 260 259 261 265 267 269 271 270 268 268 267 266 266 266 266 267
272 271 271 271 271 268 266 265 266 265 265 264 264 263 262 263 262 262 262 261 261 259 258 258 258 257 256 257 256 255 256 256 255 255 256 256 256 256 256 256 256 256 256 257 257 258 258 258 259 261 267 269 270 272 269 268 267 265 266 266 267 266
274 273 273 272 269 266 265 265 265 265 263 263 263 262 263 262 262 261 261 261 259 258 258 257 256 255 255 255 255 256 255 255 256 256 255 255 255 255 255 255 255 256 256 257 258 258 258 258 259 260 267 269 270 272 271 268 267 267 267 267 267 267
272 270 269 267 266 265 264 265 265 263 263 262 262 262 262 261 261 260 258 258 258 257 256 255 254 255 254 254 253 253 254 254 254 255 254 255 255 254 254 255 255 255 256 256 257 257 257 259 262 261 265 269 271 272 273 269 269 270 269 269 269 269
271 270 268 266 264 264 264 263 263 262 261 262 262 261 261 261 260 259 258 257 256 255 254 253 253 254 253 253 254 253 253 254 253 253 254 254 254 254 254 254 255 255 255 256 256 257 258 258 259 264 264 269 271 272 273 273 272 274 271 270 269 269
270 268 265 264 263 263 264 263 262 261 261 262 262 261 259 259 257 256 256 255 254 253 253 252 252 253 252 252 252 251 252 253 252 253 253 254 253 253 253 254 254 254 254 254 256 257 258 259 260 263 267 268 271 273 273 274 274 275 272 271 271 271
269 267 263 263 262 262 261 261 262 260 260 261 261 260 258 256 255 254 252 251 250 251 251 250 251 251 251 251 252 252 253 253 251 253 253 253 253 253 253 254 253 253 254 255 256 258 259 260 262 263 266 270 271 272 273 273 274 275 275 272 271 271
265 264 263 262 261 261 261 261 261 261 259 260 260 258 257 255 253 252 252 251 251 252 250 250 252 251 252 252 252 253 253 253 253 253 253 253 253 253 253 253 253 253 255 256 258 260 261 263 264 265 265 267 268 270 272 273 274 274 274 274 273 274
265 264 263 263 262 261 261 260 260 260 260 259 258 257 254 252 253 254 254 254 253 251 250 250 251 252 253 251 252 252 253 253 252 252 253 253 253 252 252 253 254 255 256 257 259 261 263 263 264 265 266 267 267 267 268 270 270 273 274 272 271 272
267 265 264 264 263 262 261 260 260 259 259 259 258 255 254 255 255 255 255 254 251 251 251 251 254 255 253 252 251 252 253 252 252 252 253 253 253 253 253 254 255 257 258 259 260 260 262 265 266 266 266 267 268 270 271 271 271 271 271 271 271 272
267 266 265 266 264 262 261 260 260 258 258 259 256 255 256 256 256 255 253 251 251 250 252 252 252 252 252 252 252 252 253 253 253 254 254 256 256 256 255 256 257 259 260 260 261 263 265 265 265 266 270 271 273 271 271 271 270 270 270 271 273 271
267 266 265 264 262 261 260 259 258 257 258 257 256 256 256 256 255 252 251 251 251 250 250 252 251 250 252 251 252 252 253 257 261 260 259 259 263 267 268 267 262 264 266 267 267 267 265 265 266 271 273 273 274 274 274 273 273 273 271 271 272 269
264 263 262 262 260 260 259 258 256 255 256 257 257 256 256 256 254 253 252 252 251 252 251 251 252 252 251 252 252 252 252 253 255 261 264 265 265 267 268 269 270 271 271 269 266 268 270 271 272 272 272 273 273 273 272 272 272 271 270 271 266 262
262 263 263 260 259 258 257 256 256 256 256 257 257 256 255 254 254 253 252 252 252 253 254 252 252 252 252 252 252 252 252 252 252 254 259 263 264 265 266 268 269 270 269 269 269 267 266 269 271 271 272 273 272 271 271 271 270 269 269 268 265 258
263 260 259 257 257 256 256 256 256 255 255 254 254 255 253 253 252 252 251 251 252 253 254 253 252 252 252 251 251 251 251 252 251 251 252 256 261 263 264 266 267 267 267 268 268 269 269 269 270 271 272 272 271 270 270 270 268 267 267 265 258 255
259 258 257 256 255 256 255 255 255 255 255 254 254 254 253 253 252 252 251 251 252 252 252 252 252 252 252 252 253 252 252 252 252 251 252 252 253 255 258 261 263 264 266 266 267 268 268 269 270 271 271 270 269 270 269 267 262 264 264 262 256 255
257 256 256 256 255 255 255 255 255 254 254 252 251 251 251 251 252 250 252 254 254 252 252 253 254 253 252 252 252 251 251 252 252 253 253 252 252 252 253 254 255 259 262 262 264 266 267 268 269 270 270 269 269 268 267 263 256 255 255 255 254 255
256 255 255 255 255 254 255 255 254 253 253 251 250 250 250 251 252 252 253 252 253 253 253 253 252 253 253 252 251 252 252 253 253 253 253 253 253 253 252 253 254 254 259 263 264 265 266 267 268 269 269 268 267 267 264 254 254 254 254 254 255 254
Wind_Speed
5 5 5 4 3 3 3 3 3 2 2 2 4 5 4 4 3 3 3 3 4 4 4 4 4 4 4 3 3 4 6 6 7 7 6 6 7 7 8 8 8 8 8 8 9 8 8 7 7 6 6 5 6 5 6 6 6 6 7 6 6 6
6 6 6 5 5 4 4 4 2 3 3 4 3 3 3 3 3 3 4 3 4 4 4 4 4 4 4 4 5 6 5 4 5 5 6 6 5 5 5 5 6 7 8 7 8 8 8 9 8 8 8 8 7 7 7 6 6 6 6 7 6 6
5 5 4 5 4 3 4 4 4 4 3 4 4 5 4 4 3 4 4 4 3 4 4 3 4 4 4 5 5 6 5 5 5 4 4 4 5 4 6 6 6 6 6 6 7 7 7 7 8 6 6 6 7 7 6 7 7 8 8 7 9 6
5 5 4 4 4 4 4 4 4 4 4 3 3 4 4 4 3 3 3 2 3 5 4 4 3 3 4 4 4 5 5 5 5 4 4 5 5 5 6 6 6 5 6 6 7 7 7 7 6 7 6 7 8 7 6 7 8 8 9 8 9 8
6 6 7 6 6 5 5 4 4 4 3 1 2 4 3 2 1 1 2 3 4 3 3 3 4 3 4 5 5 5 6 5 5 5 6 6 6 6 5 6 6 6 6 6 6 7 7 7 7 7 7 8 8 9 8 7 7 8 9 10 10 10
5 5 5 5 4 4 4 4 2 1 1 2 2 2 0 0 0 1 3 4 4 3 4 5 3 5 5 5 4 6 5 6 6 5 6 5 5 6 5 5 5 4 5 5 6 6 6 7 7 7 6 7 8 8 9 9 9 8 8 9 10 10
7 7 6 5 5 4 4 4 4 1 1 1 2 1 1 0 1 2 3 3 4 4 5 5 4 6 6 5 5 6 5 5 5 5 5 5 5 5 5 5 4 5 5 6 6 7 6 7 7 7 7 7 7 7 8 9 8 9 10 10 10 9
6 5 6 5 5 6 5 4 3 3 3 1 1 1 0 1 2 3 3 3 4 4 5 4 5 5 5 5 5 5 5 6 5 5 5 5 6 6 5 6 6 6 6 6 6 6 6 6 7 7 7 8 7 7 8 9 9 9 10 11 11 10
9 8 6 6 6 5 4 5 4 4 4 2 1 1 2 2 3 3 4 4 5 4 4 5 5 5 5 5 5 5 5 5 5 6 6 6 6 6 6 6 6 6 5 6 5 6 7 7 6 7 7 7 7 9 10 10 10 10 9 9 10 10
7 7 8 7 5 4 4 4 5 5 5 4 2 2 3 3 4 4 5 5 5 5 4 4 5 5 4 4 5 5 5 5 5 5 5 5 6 5 6 7 7 6 5 6 6 6 6 6 7 6 6 7 8 9 10 10 10 11 10 10 10 10
8 8 7 7 5 6 6 4 3 3 3 3 3 3 3 3 6 5 5 5 5 4 3 4 4 3 3 4 4 4 5 5 5 5 4 4 4 5 5 6 7 6 7 6 7 7 6 6 6 6 7 9 10 9 10 10 10 10 12 11 11 10
7 8 7 6 7 7 6 5 5 5 6 4 3 4 3 5 5 5 5 5 4 3 3 4 3 3 3 4 4 4 4 4 4 4 4 5 4 4 5 6 5 5 7 7 7 6 6 6 5 9 17 15 11 12 10 10 10 10 10 10 12 11
7 6 7 8 8 8 8 6 6 5 4 4 4 4 3 4 5 4 5 5 3 3 3 3 3 3 3 4 4 3 3 5 4 3 4 4 4 6 6 6 6 6 6 7 7 8 6 5 6 16 17 18 19 14 12 12 13 12 12 12 13 13
8 8 9 8 7 7 7 7 7 6 6 5 5 4 3 4 4 5 5 4 3 3 4 3 4 4 4 3 3 3 3 3 3 3 4 4 4 4 3 5 5 6 6 6 7 7 7 7 11 17 18 19 19 17 13 12 11 11 11 12 12 12
10 10 7 5 7 8 7 8 9 8 7 7 5 5 4 4 5 5 5 3 3 3 4 4 3 2 2 2 2 3 3 3 4 4 4 5 4 4 4 6 7 6 6 7 8 8 7 7 13 17 19 19 20 20 17 11 11 11 11 11 12 13
5 6 6 6 5 5 6 6 7 7 6 6 5 5 4 5 4 5 4 3 3 3 3 3 2 2 2 2 2 3 3 3 4 4 4 4 4 4 5 4 6 5 7 7 8 8 8 8 13 19 20 20 21 20 18 11 10 10 11 11 11 11
5 4 4 5 6 6 8 6 7 8 6 6 6 4 6 4 5 4 4 3 3 3 3 4 2 3 2 2 3 3 3 3 4 4 4 4 5 6 6 6 6 6 6 7 7 9 9 7 17 19 20 20 21 21 18 9 10 9 10 11 11 12
10 11 9 5 7 6 6 8 7 8 6 5 6 5 4 5 4 4 2 3 3 3 3 2 2 2 2 3 3 3 4 3 4 5 5 4 4 3 4 4 4 7 8 7 8 9 10 9 17 20 20 21 20 22 11 9 10 10 10 10 11 12
7 6 6 7 7 8 7 7 7 7 7 6 4 4 4 4 3 3 3 3 3 2 2 1 1 1 2 3 4 3 4 4 5 4 3 5 5 5 5 5 5 6 7 8 7 9 10 9 14 20 20 21 22 17 7 9 9 10 11 11 12 11
4 4 8 9 7 6 6 7 7 8 7 5 5 4 5 4 4 3 3 3 2 1 1 1 0 1 2 3 3 4 3 3 3 3 3 5 7 7 5 6 7 6 6 8 9 8 10 10 14 20 21 21 21 18 10 6 7 9 11 11 11 11
7 7 6 7 9 7 7 7 8 8 6 5 5 4 4 4 4 4 3 3 2 1 0 0 0 1 2 3 3 3 4 4 4 4 3 4 4 6 6 6 7 7 6 6 8 12 13 11 12 18 19 21 20 16 9 7 7 8 10 10 11 11
9 6 8 10 11 8 9 7 7 6 6 6 5 4 4 5 5 4 4 2 1 0 0 0 1 1 2 3 3 3 4 4 3 4 4 5 4 6 6 6 7 9 8 7 8 8 8 11 10 11 20 19 20 20 12 8 8 9 11 10 10 11
11 14 15 11 9 9 7 7 7 6 5 6 5 5 4 4 5 4 3 2 1 0 0 1 1 3 3 3 4 3 3 3 4 4 4 6 5 5 7 7 8 8 9 7 7 8 9 8 11 11 19 20 21 21 18 8 9 9 10 10 12 10
6 4 4 5 9 8 7 7 7 5 5 5 5 4 4 5 5 4 2 1 0 0 1 2 3 3 3 3 3 3 4 3 3 4 5 5 5 7 8 7 7 8 9 7 7 7 9 10 14 11 16 20 21 21 23 12 10 12 12 12 9 9
9 9 8 6 7 8 7 8 7 6 5 6 5 4 5 5 4 3 2 1 1 1 2 3 3 4 3 3 3 4 5 4 4 4 4 5 6 6 8 7 7 8 9 9 7 6 8 9 9 16 14 19 22 23 21 23 18 23 15 12 12 12
6 6 6 7 7 7 7 9 9 7 7 8 4 5 4 4 3 3 1 1 1 2 3 3 4 4 3 4 4 4 4 5 4 4 5 5 5 6 7 6 6 7 8 10 10 7 7 8 8 11 17 17 22 22 23 23 24 25 16 13 11 9
9 8 6 6 7 6 7 6 10 8 8 4 6 5 6 5 4 3 2 3 3 3 4 3 4 4 4 4 4 4 4 4 3 5 4 4 5 5 7 7 5 7 8 8 10 10 8 8 8 8 11 20 22 23 23 24 26 26 26 18 12 12
5 8 9 6 6 7 6 6 8 10 6 5 6 6 6 5 4 4 4 4 3 4 3 4 4 4 4 4 4 4 4 4 4 5 6 5 6 5 6 7 6 6 7 8 9 9 9 9 9 9 9 10 13 16 22 27 27 26 25 24 19 25
8 10 11 12 10 9 7 7 4 5 6 8 7 6 5 5 5 4 4 4 4 3 3 4 4 4 4 3 4 4 4 4 4 4 6 6 6 6 6 6 6 7 7 7 9 10 10 10 9 8 8 9 11 11 12 13 12 18 20 14 12 15
12 12 12 13 12 9 8 7 7 7 7 6 7 6 6 6 7 6 5 6 4 4 4 4 5 5 4 4 4 5 5 4 4 5 6 7 6 6 6 6 7 7 7 7 9 9 9 8 7 8 9 10 10 10 10 11 11 10 10 11 11 12
13 13 14 12 8 9 8 8 7 7 8 8 7 8 7 8 7 5 4 4 3 5 3 4 4 4 4 5 4 5 5 5 5 6 8 8 7 8 8 8 8 10 11 9 7 6 7 8 9 9 14 16 19 17 14 11 11 11 10 15 24 17
12 11 11 6 8 9 8 7 7 6 7 6 7 8 8 7 5 5 5 4 4 4 3 4 4 3 4 4 5 5 5 8 12 9 7 7 12 17 18 15 9 9 8 6 6 5 7 7 9 19 23 22 23 24 24 23 23 22 19 21 25 16
9 7 8 9 9 10 9 8 7 6 6 7 6 8 9 8 6 5 5 4 5 5 4 4 4 4 4 4 4 4 5 6 7 11 14 14 14 14 16 16 18 19 17 9 6 8 17 19 20 20 20 22 21 22 23 23 23 23 22 21 14 9
10 13 14 9 9 9 8 7 6 7 6 6 6 7 8 7 7 6 5 5 4 4 4 3 3 3 4 4 4 4 4 5 7 9 8 8 10 12 15 15 16 14 10 12 12 11 8 14 17 20 20 20 20 20 21 21 22 20 19 18 16 7
9 4 4 7 7 7 7 7 6 6 5 6 6 7 9 8 6 6 5 5 4 4 4 4 3 4 4 4 4 4 3 4 4 7 10 9 9 10 11 12 8 9 12 15 15 16 14 14 16 19 18 18 18 19 19 21 20 17 16 15 9 5
7 7 8 7 8 8 7 7 6 6 6 6 6 7 8 7 7 6 6 5 5 5 4 4 4 4 4 4 4 4 4 4 4 5 5 8 11 9 4 3 8 13 16 15 16 16 15 16 17 16 16 16 16 17 18 19 13 13 11 10 6 6
8 7 8 9 8 6 6 6 5 5 5 5 6 6 6 6 6 5 5 7 5 4 5 4 4 5 4 4 4 4 4 4 4 4 5 5 6 7 10 10 6 7 11 12 13 14 16 16 16 15 15 16 16 16 18 16 9 9 7 4 2 4
7 6 6 6 6 6 5 6 4 4 5 5 6 6 6 6 6 5 4 4 5 4 4 4 4 4 5 4 5 4 4 5 4 5 5 5 5 6 8 9 7 4 8 14 12 14 16 17 16 14 15 15 15 15 14 8 8 8 8 8 7 6
Wind_Direction
203 195 191 199 198 194 183 172 167 151 139 147 140 132 135 127 113 106 87 94 103 101 91 90 83 80 82 76 66 52 45 34 30 30 21 12 13 11 7 6 4 4 2 4 1 1 4 4 2 360 357 358 351 345 341 335 343 338 330 327 332 322
201 190 183 186 194 191 194 178 156 154 162 135 120 104 109 101 109 121 94 73 86 70 62 52 63 61 73 56 52 44 40 32 28 23 18 9 8 10 2 6 3 359 359 357 357 356 357 357 357 356 353 350 350 340 338 331 332 328 322 317 320 318
200 200 196 195 194 189 175 174 172 173 167 161 171 144 142 105 90 71 65 67 73 81 72 62 54 49 52 54 46 50 36 28 27 20 2 1 9 3 360 3 359 358 356 353 354 354 349 349 346 348 346 344 337 336 328 326 330 325 319 316 313 314
197 201 201 200 181 188 181 188 169 169 166 152 136 112 95 102 80 90 124 121 92 64 51 43 46 42 42 64 45 47 38 24 22 12 5 18 358 8 360 359 353 354 353 356 350 349 346 342 342 339 344 338 333 329 329 327 325 320 315 316 311 315
190 190 191 192 192 188 180 175 170 151 131 113 50 73 43 56 96 115 105 86 82 77 75 65 44 46 43 50 35 34 26 19 13 12 15 6 358 358 358 350 350 349 350 351 347 344 341 340 337 341 339 334 331 325 323 320 315 310 310 311 307 309
191 188 197 199 200 195 198 196 176 179 73 41 66 82 282 288 153 116 80 71 64 60 68 54 41 54 45 47 32 34 22 21 16 9 12 360 354 350 342 342 342 348 346 344 340 339 336 334 333 334 332 325 323 318 314 316 314 309 304 300 302 305
192 198 196 196 199 203 201 190 199 120 94 140 143 192 222 288 13 74 70 70 73 52 61 49 47 49 40 38 32 27 24 22 17 10 2 356 353 348 343 345 353 349 350 351 341 336 337 333 332 329 325 320 314 309 307 307 305 304 302 299 299 299
191 193 198 200 202 195 195 190 149 143 160 165 202 193 218 37 69 85 92 83 80 60 57 47 44 42 39 33 28 27 26 21 13 5 2 359 350 349 354 353 353 351 348 345 337 334 335 337 332 326 320 316 316 313 310 306 302 300 300 299 297 296
202 198 196 201 200 197 186 169 168 161 157 145 118 103 107 96 98 94 93 84 84 75 57 49 45 42 36 31 29 27 21 16 5 5 360 354 351 349 351 350 348 346 343 332 340 340 338 333 330 325 317 319 319 312 305 304 301 298 297 295 295 297
193 193 203 201 199 179 175 175 171 168 162 146 110 92 97 102 104 98 93 91 82 74 62 50 50 44 35 36 31 28 19 7 3 1 353 350 352 354 347 348 344 338 338 337 343 337 335 329 326 320 321 314 309 307 303 303 302 300 296 294 293 291
194 199 202 197 175 179 178 162 146 120 101 107 112 107 100 112 104 97 95 88 88 82 70 65 57 49 44 43 32 26 11 2 359 351 346 351 352 348 342 346 339 336 341 342 338 339 335 329 324 329 319 315 311 307 303 302 300 300 299 297 297 297
194 200 196 187 185 184 177 168 161 157 144 138 127 112 97 95 98 107 99 97 100 92 85 82 66 53 50 41 29 18 0 355 355 348 350 356 347 341 345 340 339 348 340 337 333 336 330 323 322 311 312 314 312 311 308 304 300 297 297 297 298 293
202 197 195 195 191 187 178 172 159 146 137 139 133 122 109 104 112 105 113 114 108 100 93 86 68 59 49 35 24 6 3 357 352 352 351 350 347 346 347 338 342 346 335 333 329 325 323 314 307 309 312 313 313 312 308 306 305 305 305 305 307 308
201 202 204 199 191 182 170 159 158 151 152 146 139 129 120 118 119 118 113 111 103 95 83 73 58 45 33 24 11 2 356 348 346 350 348 342 345 342 334 334 339 332 332 325 321 314 312 306 303 309 309 311 310 310 307 306 304 305 305 306 307 307
204 203 200 191 182 180 184 160 153 163 154 146 141 122 120 119 120 117 109 106 102 91 81 67 57 45 33 21 2 350 344 348 343 348 347 347 338 327 338 336 333 329 327 320 315 312 305 295 304 308 310 312 312 311 310 304 305 305 307 308 308 306
204 200 193 184 175 166 151 154 148 141 135 129 125 127 129 123 118 116 121 119 114 100 86 69 55 37 16 7 357 355 351 353 350 340 332 330 332 335 329 329 325 320 317 316 313 308 306 298 304 311 314 314 312 312 312 310 313 310 306 304 302 300
187 167 164 162 151 142 136 128 131 129 124 130 126 131 128 127 128 128 140 133 107 89 71 52 38 18 359 353 357 356 350 345 334 338 336 336 330 329 326 325 321 315 312 310 308 305 303 298 309 314 315 313 313 313 317 319 313 304 300 299 298 299
186 186 181 146 143 148 151 146 141 132 134 130 132 136 135 135 128 134 134 110 88 72 59 48 28 359 347 344 350 352 340 337 331 331 326 322 313 298 302 300 300 306 308 306 304 303 301 302 312 314 313 312 314 316 319 313 305 304 301 300 299 299
182 169 141 153 157 155 155 144 137 131 131 131 139 135 142 133 137 149 130 112 99 80 74 43 24 339 339 344 343 336 329 328 324 322 317 314 308 310 308 302 303 302 302 302 301 301 300 300 311 312 312 314 314 316 298 309 309 301 301 298 300 299
127 140 156 155 157 155 143 144 142 138 138 148 150 145 150 147 164 151 132 123 114 104 95 41 19 333 332 331 321 314 307 307 299 300 311 309 311 309 303 305 301 294 293 295 296 296 297 298 306 310 312 313 312 313 311 295 291 294 298 298 296 297
161 149 139 148 162 166 154 149 145 143 154 159 162 159 162 177 166 158 145 137 121 126 115 88 4 324 312 304 299 302 303 305 300 298 297 286 290 292 300 300 298 295 290 283 286 294 296 293 299 304 308 309 310 312 304 297 291 294 299 298 292 281
122 141 159 181 187 157 158 153 150 154 158 167 156 166 188 187 166 147 125 127 125 124 119 22 324 304 298 293 298 296 286 289 299 297 302 297 289 294 298 295 292 293 292 289 288 288 286 290 290 294 303 306 308 310 308 297 297 290 288 280 277 282
172 180 190 187 158 156 158 152 147 164 164 159 163 198 193 157 137 129 131 121 121 170 193 306 293 288 285 274 278 283 288 286 291 301 298 298 298 292 294 293 290 289 289 288 283 285 285 280 288 288 299 304 306 308 312 296 288 278 273 277 275 267
186 166 140 145 153 157 156 154 157 161 160 161 199 198 144 140 134 126 122 133 170 206 298 289 287 270 265 278 283 287 282 272 278 286 291 289 294 295 291 292 292 291 291 289 284 282 283 284 284 289 294 300 304 308 311 309 291 293 288 288 285 290
190 193 171 147 154 157 162 152 158 164 164 188 208 154 143 134 132 127 136 149 221 263 280 282 275 279 279 281 274 276 283 287 295 290 289 290 291 288 291 291 293 296 296 296 289 281 282 284 282 290 293 300 307 311 313 310 307 304 305 297 287 281
178 165 153 159 162 165 165 162 161 170 178 208 150 143 132 130 124 125 133 196 249 272 279 269 273 271 272 272 276 277 281 291 289 285 280 279 283 289 292 290 292 296 298 303 303 295 285 282 281 285 296 303 309 314 314 311 308 306 299 294 285 285
182 164 159 171 172 172 170 172 163 170 193 190 147 151 148 142 131 141 194 226 243 253 252 269 266 270 268 265 259 272 280 287 282 290 275 276 282 278 284 287 287 289 294 296 297 301 297 291 287 288 291 307 313 314 312 309 307 306 307 304 294 285
147 162 175 184 186 179 179 180 166 173 198 152 153 146 148 145 149 173 214 227 232 240 251 271 279 270 264 265 258 251 256 263 274 273 283 276 272 266 270 281 284 282 282 284 292 294 299 299 298 298 296 294 295 302 301 301 300 301 301 300 298 299
170 185 186 193 195 186 182 173 175 160 141 155 149 146 145 153 169 190 210 227 231 242 238 243 268 279 276 265 258 255 257 254 253 258 270 268 270 269 263 271 276 279 271 264 287 294 300 298 296 302 304 306 301 293 288 292 290 294 297 295 281 281
193 196 193 202 193 181 171 171 171 155 147 149 150 148 152 170 181 194 210 219 215 231 229 239 253 257 268 268 263 273 277 258 239 247 256 260 257 260 267 264 268 266 266 271 286 282 285 296 309 308 307 300 298 306 309 302 299 305 308 308 312 310
199 202 198 204 170 171 173 177 168 162 158 153 155 155 167 174 179 196 210 217 214 238 234 232 241 245 255 269 262 250 242 261 265 261 261 250 233 234 247 261 256 263 271 256 250 273 298 312 308 303 307 313 319 318 316 322 326 326 322 320 318 318
200 199 198 182 162 176 177 177 172 169 167 160 160 160 170 178 185 193 218 212 216 236 235 242 245 242 248 253 268 276 279 255 262 260 252 256 266 263 254 245 238 248 267 281 293 305 304 300 297 308 317 318 319 325 328 328 328 330 328 325 327 331
196 185 185 181 169 179 179 175 173 170 172 162 164 164 172 164 183 201 215 212 226 225 230 232 247 251 251 254 259 269 282 301 294 290 284 279 279 281 282 285 286 291 293 296 307 308 306 306 310 315 317 320 329 334 333 334 338 339 337 340 347 356
190 194 195 174 170 172 171 171 176 176 174 171 169 169 174 181 184 201 211 210 223 231 236 239 244 255 257 262 259 264 280 291 308 308 301 298 298 299 298 296 295 293 300 310 314 313 308 312 316 319 321 330 337 337 337 341 347 344 345 354 6 354
191 165 144 154 162 162 170 177 189 177 173 172 171 170 168 179 191 199 211 210 217 222 232 242 241 247 243 254 259 263 264 282 296 307 316 316 313 309 305 308 315 321 313 314 315 318 318 318 319 320 328 338 341 339 342 346 348 344 350 359 1 349
149 149 151 160 171 174 176 191 190 179 178 170 173 177 188 190 196 200 201 205 206 212 228 230 237 239 244 241 245 247 258 262 266 279 285 308 323 328 308 276 313 315 314 313 315 321 322 322 323 325 337 345 344 344 348 351 342 337 352 2 343 332
149 155 163 162 165 172 188 207 197 173 173 171 171 175 185 194 199 204 218 215 211 210 226 232 236 235 242 241 247 249 255 261 267 265 274 289 295 298 305 309 307 302 304 309 313 320 323 326 327 331 345 349 350 350 355 349 339 345 342 351 329 319
149 153 154 156 164 177 200 227 196 168 178 170 166 174 189 196 204 206 211 216 221 223 228 235 232 235 236 241 249 244 246 249 247 260 267 273 271 280 291 292 294 289 305 303 308 318 323 326 328 336 349 350 349 354 3 352 342 334 336 336 336 338